Location: Unspecified
(0.0000°N, 0.0000°E)
Time: 11:46:27
(UTC+00:00)

USA 278 - Pass Details

Date: 11 June 2023
Orbit: 1731 x 38625 km, 63.0° (Epoch: 06 September)

Event Time Altitude Azimuth Distance (km) Brightness Sun altitude
Exits shadow 02:32:15 38° 275° (W) 9,538 ? -46.3°
Maximum altitude 13:20:14 63° 261° (W) 7,229 ? 59.7°
Drops below altitude 10° 13:39:28 10° 176° (S) 5,737 ? 56.5°
Sets 13:42:01 0° 171° (S) 6,218 ? 56.1°
